P/2019 T6 ( PanSTARRS )

Japanese version
Home page
Updated on March 8, 2020

---------------------------------------------------------------------

* Profile

Discovery Date October 8, 2019
Magnitude 19.6 mag
Discoverer Pan-STARRS 2 telescope (Haleakala)

* Pictures

* Orbital Elements

Epoch 2019 Nov. 13.0 TT = JDT 2458800.5
T 2019 Nov. 7.76224 TT                                  Bell
q   2.0519353            (2000.0)            P               Q
n   0.07785647     Peri.  328.91103     +0.73773649     -0.60293750
a   5.4317475      Node    71.31078     +0.66631821     +0.57805839
e   0.6222329      Incl.   18.69718     +0.10846620     +0.54983167
P  12.7
From 169 observations 2019 Oct. 8-2020 Feb. 14, mean residual 0".5.

* Magnitudes Graph

        m1 = 15.0 + 5 log d + 10.0 log r

---------------------------------------------------------------------

The orbital elements are published on M.P.E.C. 2020-E26.
The magnitudes graphs are made with Comet for Windows.

---------------------------------------------------------------------

Copyright(C) Seiichi Yoshida (comet@aerith.net). All rights reserved.